Location: Brede
(50.9167°N, 0.6000°E)
Time: 14:39:29
(UTC+00:00)

Daily predictions for brighter satellites

Satellite Brightness Start Highest point End
(mag) Time Altitude Azimuth Time Altitude Azimuth Time Altitude Azimuth
CSL-04 Debris 4.3 19:17:34 10° SSE 19:22:56 65° ENE 19:28:22 10° N
Cosmos 2341 Rocket 4.1 19:17:03 10° N 19:23:24 89° W 19:29:39 10° S
Meteor 1-16 Rocket 4.3 19:21:19 10° SSW 19:26:56 84° WNW 19:32:25 10° NNE
SL-27 R/B 3.0 19:24:57 10° N 19:27:36 30° ENE 19:30:13 10° SE
In-Cosmos 22 Rocket 4.3 19:24:34 10° N 19:29:55 59° ENE 19:35:21 10° SSE
SL-4 R/B 1.6 19:26:59 10° WSW 19:30:43 86° SSE 19:34:13 10° ENE
CSL-04 Rocket 3.7 19:27:12 10° SSE 19:32:41 71° ENE 19:38:09 10° NNW
NOSS 2-3 (E) 3.6 19:30:23 10° SW 19:34:04 74° NW 19:38:23 10° NE
IKONOS-2 4.5 19:32:03 10° NNE 19:36:17 80° ESE 19:40:30 10° SSW
Cosmos 1825 3.1 19:33:03 10° NNW 19:36:23 46° W 19:39:42 10° S
Cosmos 2366 rocket 4.2 19:31:19 10° N 19:37:42 86° W 19:44:04 10° S
Cosmos 2297 Rocket 3.6 19:33:06 10° NNW 19:37:42 25° NE 19:42:17 10° E
Cosmos 2297 4.1 19:32:08 10° SW 19:37:47 72° WNW 19:43:32 10° NNE
Feng Yun 1-1 Rocket 4.4 19:35:39 10° SSE 19:41:11 86° WSW 19:46:55 10° NNW
Cosmos 1486 Rocket 4.4 19:37:01 10° NNW 19:42:06 50° ENE 19:47:09 10° SE
Cosmos 2369 Rocket 2.4 19:37:58 10° SSW 19:43:40 83° WNW 19:49:21 10° NNE
Cosmos 1025 Rocket 3.7 19:40:25 10° NNW 19:44:43 58° W 19:49:00 10° S
Okean-O 3.0 19:43:20 10° SE 19:47:34 49° ENE 19:51:50 10° N
Cosmos 2218 Rocket 4.3 19:41:11 10° NNW 19:47:36 78° W 19:53:57 10° S
Cosmos 1461 4.5 19:44:26 10° WSW 19:48:16 37° NW 19:52:00 10° NNE
SPOT 5 3.8 19:43:43 10° SE 19:48:34 37° ENE 19:53:22 10° N
Nadezhda 3 Rocket 4.4 19:44:47 10° SSE 19:50:28 41° E 19:56:12 10° NNE
Cosmos 1821 Rocket 4.0 19:46:27 10° N 19:52:40 73° ENE 19:58:46 10° SSE
USA 267 3.4 19:46:09 10° ENE 19:52:43 83° NNW 19:59:17 10° WSW
CZ-4 R/B 2.9 19:49:42 10° SSW 19:53:20 35° W 19:56:56 10° NNW
Cosmos 1302 Rocket 4.1 19:49:23 10° SSW 19:54:39 82° WNW 19:59:56 10° NNE
Cosmos 1953 3.5 19:52:03 10° SSW 19:55:43 45° WNW 19:59:26 10° N
Cosmos 2263 4.2 19:50:56 10° SSW 19:56:34 88° WNW 20:02:13 10° NNE
Cosmos 371 Rocket 3.9 19:54:53 10° NNW 19:59:26 40° ENE 20:03:06 15° ESE
CZ-4B R/B 4.0 19:54:06 10° S 19:59:38 56° WSW 20:05:09 10° NNW
Cosmos 1975 Rocket 3.4 19:59:38 10° NNW 20:03:58 67° W 20:08:14 10° S
CZ-4C R/B 3.4 20:00:50 10° NNE 20:04:07 39° E 20:07:18 10° S
CARTOSAT-1 3.8 20:00:03 10° S 20:04:18 71° WSW 20:08:36 10° NNW
Okean O Rocket 2.1 20:02:54 10° S 20:07:12 61° WSW 20:11:33 10° NNW
NOSS 2-2 (C) 4.1 20:04:33 10° WSW 20:07:35 43° NW 20:10:44 10° NE
Cosmos 2263 Rocket 4.4 20:05:43 10° N 20:08:47 15° NNE 20:11:50 10° ENE
Iridium 2 4.4 20:06:58 10° NNE 20:09:26 23° ENE 20:10:21 20° ESE
USA 186 3.7 20:08:02 10° SSW 20:10:43 27° W 20:13:22 10° NW
Cosmos 304 Rocket 4.4 20:06:48 10° NNW 20:11:21 41° ENE 20:14:33 18° ESE
COSMOS 2455 3.8 20:05:52 10° NNW 20:11:25 36° NE 20:16:08 14° E
Landsat 4 4.2 20:12:24 20° SE 20:14:26 39° ENE 20:17:44 10° N
NOSS 3-1 (A) 3.6 20:11:32 10° S 20:16:04 36° ESE 20:21:22 10° NE
Resurs 01 Rocket 2.5 20:12:01 10° S 20:16:18 50° W 20:20:38 10° NNW
USA 129 1.9 20:14:16 10° N 20:16:53 65° WNW 20:18:06 17° SSW
ERS-1 Rocket 3.5 20:14:29 17° SE 20:17:57 42° ENE 20:22:39 10° N
Cosmos 2098 Rocket 3.2 20:13:51 10° S 20:18:52 82° W 20:22:57 10° N
Terra 2.6 20:17:05 18° ESE 20:19:57 36° ENE 20:24:16 10° N
CENTAUR R/B 4.1 20:16:33 10° NW 20:23:28 38° NNE 20:31:31 10° E
ATLAS 5 CENTAUR R/B 0.9 20:26:15 10° SSW 20:29:36 64° SE 20:33:22 10° NE
Cosmos 1536 Rocket 3.6 20:25:30 10° N 20:29:54 67° ENE 20:32:51 20° SSE
Cosmos 1777 Rocket 4.1 20:27:43 10° NNW 20:32:59 66° ENE 20:36:18 23° SE
IRS-1A Rocket 4.4 20:29:11 16° SSE 20:34:00 76° ENE 20:39:53 10° NNW
BREEZE-M R/B 1.8 20:32:40 10° W 20:35:08 57° S 20:35:33 47° SE
Cosmos 1934 Rocket 4.0 20:29:24 10° N 20:35:32 69° ENE 20:40:16 18° SSE
NOSS 3-1 (C) 3.1 20:33:08 10° SW 20:38:10 89° NW 20:44:21 10° NE
Cosmos 2151 Rocket 3.5 20:37:33 13° S 20:41:24 68° E 20:45:49 10° NNE
MOS 1 Rocket 4.2 20:41:33 23° E 20:42:59 28° ENE 20:46:42 10° N
SJ 16-02 4.0 20:42:26 10° WNW 20:44:58 15° W 20:47:29 10° SW
Cosmos 1503 Rocket 4.1 20:40:53 10° NNW 20:46:18 84° WSW 20:49:43 23° SSE
Cosmos 1354 Rocket 4.0 20:41:53 10° NNW 20:47:15 79° ENE 20:50:16 27° SSE
CZ-4C R/B 3.4 20:41:22 10° NW 20:47:47 50° NE 20:53:33 19° ESE
ATLAS CENTAUR R/B 3.1 20:45:29 10° NNW 20:48:20 20° NNE 20:50:19 14° ENE
USA 281 4.0 20:44:45 10° S 20:51:02 47° WSW 20:57:21 10° NW
Spot 2 Rocket 3.5 20:50:47 28° SE 20:53:23 64° ENE 20:58:24 10° N
Cosmos 2227 Rocket 3.0 20:48:08 10° NNW 20:53:28 40° NE 20:56:18 24° ESE
Dummy Sat-02 4.5 20:52:35 33° S 20:54:07 75° E 20:57:49 10° N
ATLAS 3B R/B 2.8 20:49:44 10° SSW 20:56:50 76° SE 21:04:29 10° NE
Cosmos 1892 Rocket 4.0 20:59:57 10° N 21:04:08 45° ENE 21:05:04 38° ESE
Okean 2 Rocket 3.2 21:00:19 13° SSW 21:04:15 78° W 21:08:47 10° N
Genesis I 2.9 21:01:18 10° NW 21:04:57 83° SW 21:05:40 56° SSE
Cosmos 1535 Rocket 4.5 21:00:17 10° N 21:06:44 83° E 21:10:32 26° SSE
Cosmos 546 4.4 21:04:09 10° W 21:07:55 84° S 21:08:53 48° E
SL-4 R/B 1.5 21:06:00 10° W 21:09:34 82° N 21:10:10 59° E
Cosmos 1697 Rocket 3.9 21:10:26 23° E 21:10:26 23° E 21:14:12 10° NE
ARIANE 5 R/B 4.3 21:11:15 19° ENE 21:12:09 21° ENE 21:15:28 10° NNE
Ariane Rocket 2.9 21:10:38 33° SSE 21:12:59 89° WSW 21:18:04 10° NNW
Cosmos 2297 Rocket 2.1 21:16:47 10° NNW 21:22:29 86° WSW 21:24:39 40° SSE
Cosmos 1763 Rocket 3.9 21:22:45 39° ESE 21:22:49 39° ESE 21:27:34 10° NE
Sich 1 Rocket 4.4 21:18:56 12° SSW 21:22:56 51° WNW 21:27:17 10° N
Iridium 4 Rocket 3.8 21:20:14 21° SSW 21:24:00 74° W 21:29:50 10° N
SPOT 5 4.2 21:22:38 16° SSW 21:26:31 40° W 21:31:30 10° NNW
Cosmos 990 Rocket 3.9 21:24:42 10° NNW 21:29:56 76° ENE 21:31:19 49° SE
Cosmos 2058 3.3 21:27:30 10° N 21:31:20 44° ENE 21:31:20 44° ENE
SPOT 3 Rocket 3.7 21:29:40 36° S 21:31:49 71° WSW 21:37:01 10° NNW
Landsat 5 3.4 21:27:40 10° NNE 21:31:57 62° ESE 21:32:07 61° ESE
Cosmos 2219 3.9 21:27:12 10° NNW 21:32:38 44° NE 21:34:31 33° E
USA 267 3.9 21:29:08 10° ENE 21:35:28 54° N 21:41:49 10° W
Okean 1 Rocket 3.5 21:33:30 27° SSW 21:35:49 61° WNW 21:40:16 10° N
Cosmos 1455 Rocket 3.0 21:38:22 64° ESE 21:38:36 66° E 21:42:58 10° NNE
Meteor 2-3 Rocket 4.5 21:37:21 10° N 21:42:38 38° ENE 21:43:47 34° E
Cosmos 1605 Rocket 4.3 21:38:03 10° NNW 21:44:24 67° W 21:47:34 31° SSW
Cosmos 1656 3.6 21:41:46 19° SSW 21:45:48 89° WNW 21:51:21 10° NNE
Cosmos 2173 Rocket 4.3 21:40:19 10° N 21:46:36 55° ENE 21:48:19 43° ESE
Cosmos 292 Rocket 4.2 21:42:21 10° NNW 21:46:57 47° ENE 21:47:30 45° E
Cosmos 405 Rocket 2.9 21:48:03 62° NNE 21:48:03 62° NNE 21:51:15 10° NNE
Cosmos 1153 Rocket 4.4 21:42:02 10° N 21:48:25 86° E 21:50:32 45° SSE
Cosmos 468 Rocket 4.4 21:50:33 45° E 21:50:33 45° E 21:55:07 10° NE
Cosmos 1437 Rocket 2.8 21:46:55 10° NNW 21:50:46 73° W 21:50:46 73° W
ARGOS Delta rocket 4.3 21:49:33 42° SSW 21:51:17 68° W 21:56:45 10° NNW
Cosmos 540 Rocket 3.7 21:51:48 48° E 21:51:48 48° E 21:56:22 10° NNE
H-2A R/B 3.7 21:52:30 28° NE 21:52:30 28° NE 21:55:15 10° N
Cosmos 2082 4.4 21:47:48 10° NNW 21:53:12 42° NE 21:54:46 35° E
Cosmos 2263 Rocket 2.9 21:48:55 10° NNW 21:54:17 43° NE 21:55:46 36° E
Cosmos 372 Rocket 4.3 21:50:27 10° NNW 21:55:36 54° ENE 21:56:25 48° E
ERS-1 Rocket 4.3 21:54:25 21° SW 21:56:49 32° W 22:01:18 10° NNW
Terra 3.1 21:55:47 26° SW 21:57:34 34° W 22:01:53 10° NNW
COSMOS 2455 3.0 21:51:47 10° NW 21:57:46 66° WSW 21:59:16 49° S
Cosmos 1802 Rocket 4.3 21:53:50 10° N 21:59:56 52° ENE 22:01:16 44° ESE
NOSS 3-1 (A) 3.9 22:01:29 10° WSW 22:06:36 54° NW 22:12:53 10° NE
CZ-2C R/B 4.3 22:08:07 10° NNE 22:12:02 46° ENE 22:12:02 46° ENE
ATLAS 5 CENTAUR R/B 3.5 22:10:53 10° W 22:13:54 24° NNW 22:17:18 10° NNE
USA 81 4.0 22:13:15 62° SSW 22:14:09 81° W 22:19:28 10° N
USA 229 DEB 3.4 22:10:38 24° SW 22:14:39 83° SE 22:21:34 10° NE
USA 229 3.4 22:10:57 25° SW 22:14:48 83° SE 22:21:43 10° NE
Cosmos 2016 Rocket 4.1 22:09:19 10° N 22:15:20 55° ENE 22:16:18 50° ESE
CENTAUR R/B 3.3 22:07:24 10° NW 22:15:25 76° NE 22:19:23 38° ESE
Aureole 1 Rocket 4.4 22:13:46 10° NW 22:15:15 24° NW 22:15:15 24° NW
MetOp-A 4.4 22:16:56 36° W 22:16:56 36° W 22:20:16 10° NNW
Intercosmos 25 3.6 22:11:27 10° N 22:16:44 82° NW 22:16:44 82° NW
Cosmos 1937 Rocket 3.5 22:12:44 10° NNW 22:18:04 71° ENE 22:18:30 68° E
Cosmos 1727 Rocket 4.0 22:16:54 48° SSW 22:18:51 83° W 22:25:09 10° N
Cosmos 1626 Rocket 3.6 22:14:33 10° N 22:18:36 75° N 22:18:36 75° N
Cosmos 2100 Rocket 3.9 22:12:44 10° N 22:19:10 89° WSW 22:20:34 58° S
MOS 1 Rocket 4.1 22:20:44 35° WSW 22:21:03 36° W 22:25:04 10° NNW
Meteor 2-15 4.3 22:17:20 10° N 22:23:31 78° ENE 22:24:29 63° SE
Meteor 2-15 Rocket 4.5 22:19:04 10° N 22:25:11 62° ENE 22:26:02 56° ESE
Cosmos 1898 Rocket 3.4 22:20:40 10° NNW 22:25:57 78° WSW 22:26:12 76° SW
ATLAS CENTAUR R/B 2.2 22:22:47 10° NW 22:25:25 44° NW 22:25:25 44° NW
Spot 4 4.3 22:31:23 49° ENE 22:31:23 49° ENE 22:35:53 10° N
Cosmos 1000 Rocket 4.3 22:34:24 63° SSW 22:35:30 88° W 22:41:42 10° N
Cosmos 2123 Rocket 3.9 22:35:04 62° SE 22:35:44 67° E 22:42:02 10° NNE
CZ-4C R/B 3.1 22:29:41 10° NW 22:36:42 65° SW 22:38:38 51° S
Cosmos 2227 Rocket 2.7 22:32:14 10° NW 22:37:38 46° WSW 22:38:07 44° SW
Cosmos 44 3.7 22:36:49 40° WSW 22:38:44 69° NW 22:44:02 10° NE
Cosmos 1544 Rocket 4.0 22:40:02 60° N 22:40:02 60° N 22:43:40 10° N
Okean 1-7 Rocket 3.9 22:35:05 10° N 22:39:03 68° N 22:39:03 68° N
Cosmos 1844 Rocket 4.3 22:35:04 10° NNW 22:39:49 27° NE 22:41:59 21° ENE
Cosmos 1980 Rocket 2.5 22:43:51 51° E 22:43:51 51° E 22:48:33 10° NE
Cosmos 1606 4.3 22:49:38 30° N 22:49:38 30° N 22:51:36 10° N
ARIANE 5 R/B 3.1 22:48:43 56° WNW 22:48:43 56° WNW 22:52:38 10° NNW
ATLAS 3B R/B 4.0 22:41:15 10° W 22:48:14 44° NNW 22:55:36 10° NE
Meteor 2-1 Rocket 4.3 22:49:59 61° WSW 22:50:40 68° WNW 22:56:11 10° N
Cosmos 1697 Rocket 2.9 22:52:05 54° WSW 22:53:15 69° WNW 22:58:56 10° NNE
NOSS 3-2 (C) 4.3 22:47:37 10° NW 22:54:35 59° NE 22:58:39 31° ESE
Cosmos 2061 Rocket 3.9 22:51:44 10° N 22:58:14 83° E 22:58:57 71° SSE
SL-08 R/B 4.3 22:54:09 10° N 23:00:34 86° W 23:01:13 73° S
Cosmos 1602 Rocket 4.3 22:56:27 10° NNW 22:59:51 49° NW 22:59:51 49° NW
Cosmos 1758 Rocket 4.4 22:56:26 10° NNW 23:00:02 48° WNW 23:00:02 48° WNW
Cosmos 1725 Rocket 3.9 22:56:35 10° NNW 23:02:46 74° W 23:03:23 68° SW
Cosmos 2297 Rocket 4.2 23:02:19 10° WNW 23:05:40 16° W 23:06:27 16° WSW
Cosmos 2227 4.5 23:01:00 10° NNW 23:06:40 58° NE 23:07:10 55° ENE
Cosmos 2233 Rocket 3.8 23:00:47 10° N 23:06:58 85° E 23:07:24 78° SE
Cosmos 2369 3.8 23:09:08 61° ENE 23:09:08 61° ENE 23:14:04 10° NNE
ALOS 2 3.3 23:11:02 52° N 23:11:02 52° N 23:14:27 10° NNW
Cosmos 2219 4.0 23:11:31 10° NW 23:16:25 39° W 23:16:25 39° W
USA 267 3.7 23:11:37 10° E 23:18:01 60° NNE 23:24:27 10° WNW
Cosmos 1825 Rocket 4.4 23:16:26 10° NNW 23:19:39 48° NNW 23:19:39 48° NNW
Cosmos 2228 4.3 23:25:48 36° NW 23:25:48 36° NW 23:29:00 10° N
H-2A R/B 4.4 23:28:33 21° WNW 23:28:33 21° WNW 23:30:15 10° NW
Cosmos 2151 4.1 23:23:50 10° N 23:26:43 41° N 23:26:43 41° N
H-2A R/B 3.6 23:27:38 10° NNE 23:29:58 30° NE 23:29:58 30° NE
NOSS 3-2 (A) 4.0 23:24:34 10° NW 23:31:50 70° SW 23:33:03 62° S
Cosmos 2360 Rocket 4.0 23:38:28 19° E 23:38:28 19° E 23:41:22 10° NE
Cosmos 2263 Rocket 3.0 23:33:00 10° NW 23:37:26 38° W 23:37:26 38° W
Cosmos 2333 Rocket 4.1 23:40:32 17° E 23:40:32 17° E 23:43:13 10° ENE
Cosmos 1125 Rocket 3.9 23:37:15 10° NNW 23:42:14 57° NE 23:42:14 57° NE
Cosmos 841 Rocket 4.1 23:43:52 47° WNW 23:44:05 47° WNW 23:49:04 10° NNE
Cosmos 2322 Rocket 3.5 23:49:24 29° E 23:49:24 29° E 23:53:11 10° NE
Cosmos 2219 Rocket 4.3 23:54:47 14° E 23:54:47 14° E 23:56:59 10° ENE
